IRIDIUM 76 [P]

Last updated on Wed Aug 15 2018 00:20:40 GMT+0000 (Coordinated Universal Time)

1 25432U 98048B 18226.33621270 .00038333 -90376-6 15695-3 0 9999 2 25432 86.6563 78.4838 0343831 170.1484 190.6750 15.32357974 46348

Satellite not in orbit